Radiation Dose at Monitoring Post of Fukushima Daini Nuclear Power Station
Date,Time,MP-1(microSv/h),MP-2(microSv/h),MP-3(microSv/h),MP-4(microSv/h),MP-5(microSv/h),MP-6(microSv/h),MP-7(microSv/h),Wind Direction,Wind Velocity(m/s),Rain
2017/12/19,00:00,0.340,0.209,0.348,0.324,0.314,0.174,0.103,west,4.5,No
2017/12/19,00:10,0.340,0.207,0.347,0.325,0.313,0.174,0.104,west-southwest,6.4,No
2017/12/19,00:20,0.342,0.208,0.348,0.323,0.314,0.174,0.104,southwest,4.3,No
2017/12/19,00:30,0.340,0.208,0.348,0.324,0.312,0.174,0.104,west-southwest,3.1,No
2017/12/19,00:40,0.341,0.209,0.348,0.324,0.315,0.175,0.104,west,2.1,No
2017/12/19,00:50,0.340,0.208,0.348,0.324,0.313,0.174,0.105,west-southwest,2.6,No
2017/12/19,01:00,0.339,0.208,0.348,0.324,0.314,0.175,0.103,southwest,2.3,No
2017/12/19,01:10,0.340,0.208,0.349,0.326,0.313,0.174,0.104,southwest,1.9,No
2017/12/19,01:20,0.340,0.209,0.349,0.325,0.314,0.174,0.104,west-southwest,1.7,No
2017/12/19,01:30,0.340,0.208,0.348,0.325,0.314,0.174,0.104,west-southwest,0.6,No
2017/12/19,01:40,0.340,0.209,0.348,0.324,0.314,0.174,0.104,north,1.7,No
2017/12/19,01:50,0.340,0.207,0.349,0.324,0.312,0.174,0.104,-,CALM,No
2017/12/19,02:00,0.340,0.208,0.347,0.324,0.314,0.174,0.104,southwest,1.8,No
2017/12/19,02:10,0.340,0.208,0.350,0.325,0.314,0.174,0.104,southwest,2.5,No
2017/12/19,02:20,0.341,0.207,0.348,0.325,0.313,0.175,0.103,west-southwest,2.2,No
2017/12/19,02:30,0.340,0.208,0.347,0.326,0.313,0.173,0.103,southwest,1.6,No
2017/12/19,02:40,0.340,0.208,0.347,0.325,0.313,0.173,0.104,south-southeast,2.5,No
2017/12/19,02:50,0.342,0.208,0.347,0.324,0.313,0.174,0.104,south,5.0,No
2017/12/19,03:00,0.341,0.209,0.348,0.324,0.313,0.174,0.103,south,4.9,No
2017/12/19,03:10,0.339,0.207,0.347,0.324,0.313,0.174,0.104,south,4.0,No
2017/12/19,03:20,0.341,0.209,0.348,0.326,0.312,0.173,0.104,south-southwest,3.0,No
2017/12/19,03:30,0.342,0.207,0.348,0.324,0.314,0.175,0.104,south,6.4,No
2017/12/19,03:40,0.339,0.208,0.348,0.324,0.315,0.174,0.104,south,8.5,No
2017/12/19,03:50,0.339,0.208,0.347,0.325,0.313,0.174,0.104,south-southwest,7.7,No
2017/12/19,04:00,0.341,0.207,0.348,0.324,0.315,0.174,0.104,south-southwest,7.9,No
2017/12/19,04:10,0.340,0.208,0.346,0.325,0.313,0.174,0.103,south-southwest,7.9,No
2017/12/19,04:20,0.341,0.207,0.348,0.324,0.313,0.173,0.104,south,8.1,No
2017/12/19,04:30,0.340,0.209,0.345,0.324,0.316,0.174,0.105,south,7.7,No
2017/12/19,04:40,0.339,0.207,0.348,0.325,0.313,0.173,0.103,south-southwest,8.1,No
2017/12/19,04:50,0.340,0.207,0.348,0.324,0.314,0.174,0.104,south-southwest,4.2,No
2017/12/19,05:00,0.340,0.208,0.347,0.324,0.313,0.174,0.104,south-southwest,7.0,No
2017/12/19,05:10,0.340,0.208,0.347,0.325,0.314,0.173,0.103,south,6.8,No
2017/12/19,05:20,0.342,0.207,0.348,0.323,0.313,0.173,0.103,south-southwest,7.1,No
2017/12/19,05:30,0.341,0.207,0.348,0.324,0.312,0.173,0.104,south,6.0,No
2017/12/19,05:40,0.340,0.207,0.346,0.324,0.312,0.174,0.103,south,4.5,No
2017/12/19,05:50,0.340,0.208,0.348,0.324,0.314,0.173,0.105,south,4.8,No
2017/12/19,06:00,0.342,0.208,0.347,0.324,0.312,0.173,0.104,south-southwest,5.5,No
2017/12/19,06:10,0.340,0.208,0.348,0.325,0.314,0.174,0.103,south-southwest,6.1,No
2017/12/19,06:20,0.339,0.207,0.347,0.324,0.313,0.174,0.103,south-southwest,5.2,No
2017/12/19,06:30,0.340,0.207,0.348,0.325,0.314,0.173,0.103,south-southwest,4.1,No
2017/12/19,06:40,0.340,0.207,0.348,0.324,0.314,0.174,0.103,south-southwest,4.2,No
2017/12/19,06:50,0.341,0.207,0.347,0.323,0.315,0.173,0.104,south,4.8,No
2017/12/19,07:00,0.341,0.206,0.348,0.323,0.311,0.172,0.103,south,2.1,No
2017/12/19,07:10,0.341,0.206,0.347,0.325,0.313,0.173,0.104,south-southwest,4.5,No
2017/12/19,07:20,0.340,0.208,0.347,0.324,0.313,0.173,0.103,southwest,4.8,No
2017/12/19,07:30,0.340,0.208,0.347,0.325,0.311,0.173,0.103,south-southwest,4.9,No
2017/12/19,07:40,0.340,0.208,0.347,0.323,0.313,0.174,0.103,south-southwest,5.9,No
2017/12/19,07:50,0.341,0.207,0.346,0.324,0.314,0.175,0.105,south-southwest,5.4,No
2017/12/19,08:00,0.339,0.207,0.349,0.324,0.314,0.173,0.104,south-southwest,6.0,No
2017/12/19,08:10,0.340,0.208,0.347,0.323,0.313,0.175,0.104,south-southwest,5.2,No
2017/12/19,08:20,0.340,0.208,0.347,0.323,0.315,0.174,0.103,south-southwest,5.0,No
2017/12/19,08:30,0.342,0.208,0.347,0.322,0.313,0.173,0.104,south-southwest,5.7,No
2017/12/19,08:40,0.340,0.208,0.347,0.321,0.313,0.172,0.103,south,5.9,No
2017/12/19,08:50,0.340,0.207,0.348,0.324,0.313,0.174,0.103,south,6.5,No
2017/12/19,09:00,0.340,0.208,0.347,0.322,0.314,0.173,0.103,south,6.7,No
2017/12/19,09:10,0.339,0.208,0.346,0.322,0.313,0.173,0.102,south,4.2,No
2017/12/19,09:20,0.340,0.207,0.348,0.324,0.313,0.174,0.104,south,6.2,No
2017/12/19,09:30,0.340,0.207,0.348,0.323,0.313,0.172,0.103,south-southwest,5.9,No
2017/12/19,09:40,0.340,0.207,0.347,0.324,0.311,0.172,0.103,south-southwest,3.8,No
2017/12/19,09:50,0.340,0.207,0.346,0.324,-,0.173,0.103,south-southwest,2.6,No
2017/12/19,10:00,0.342,0.207,0.348,0.324,-,0.174,0.104,south-southwest,5.0,No
2017/12/19,10:10,0.339,0.207,0.346,0.324,-,0.175,0.103,south,5.2,No
2017/12/19,10:20,0.339,0.206,0.346,0.323,-,0.173,0.103,south,4.9,No
2017/12/19,10:30,0.337,0.206,0.346,0.325,-,0.174,0.103,south,6.6,No
2017/12/19,10:40,0.339,0.206,0.347,0.323,-,0.173,0.103,south,3.8,No
2017/12/19,10:50,0.337,0.207,0.347,0.325,-,0.173,0.104,south,3.9,No
2017/12/19,11:00,0.340,0.206,0.347,0.322,-,0.174,0.103,south,5.7,No
2017/12/19,11:10,0.337,0.208,0.347,0.323,-,0.175,0.104,south,6.3,No
2017/12/19,11:20,0.340,0.207,0.346,0.324,-,0.174,0.103,south,5.9,No
2017/12/19,11:30,0.338,0.208,0.348,0.323,-,0.174,0.103,south,7.0,No
2017/12/19,11:40,0.341,0.208,0.345,0.325,-,0.173,0.104,south,7.4,No
2017/12/19,11:50,0.338,0.207,0.346,0.324,-,0.174,0.104,south,4.8,No
2017/12/19,12:00,0.340,0.208,0.346,0.327,-,0.174,0.104,south-southwest,4.1,No
2017/12/19,12:10,0.338,0.207,0.348,0.325,-,0.174,0.104,southwest,4.1,No
2017/12/19,12:20,0.340,0.208,0.346,0.325,-,0.174,0.104,west-southwest,4.3,No
2017/12/19,12:30,0.339,0.206,0.346,0.325,-,0.174,0.103,west-southwest,3.7,No
2017/12/19,12:40,0.341,0.208,0.346,0.325,-,0.176,0.103,southwest,5.5,No
2017/12/19,12:50,0.339,0.206,0.345,0.322,-,0.174,0.103,west-southwest,6.0,No
2017/12/19,13:00,0.340,0.209,0.347,0.324,-,0.174,0.104,west,5.5,No
2017/12/19,13:10,0.340,0.208,0.348,0.324,-,0.175,0.103,west-southwest,3.5,No
2017/12/19,13:20,0.340,0.208,0.347,0.325,-,0.173,0.105,southwest,5.3,No
2017/12/19,13:30,0.339,0.208,0.347,0.325,-,0.175,0.103,west,5.5,No
2017/12/19,13:40,0.339,0.206,0.347,0.324,-,0.174,0.104,west,5.9,No
2017/12/19,13:50,0.341,0.208,0.348,0.324,-,0.174,0.103,west,9.5,No
2017/12/19,14:00,0.339,0.207,0.347,0.325,-,0.173,0.103,west-northwest,10.4,No
2017/12/19,14:10,0.341,0.207,0.349,0.325,-,0.173,0.104,west-northwest,9.8,Yes
2017/12/19,14:20,0.342,0.210,0.349,0.325,-,0.176,0.105,west-northwest,11.0,Yes
2017/12/19,14:30,0.342,0.209,0.348,0.325,-,0.176,0.104,west,9.8,No
2017/12/19,14:40,0.342,0.208,0.350,0.326,-,0.177,0.105,west,10.7,No
2017/12/19,14:50,0.344,0.210,0.350,0.326,-,0.176,0.105,west,9.5,No
2017/12/19,15:00,0.342,0.209,0.349,0.326,-,0.176,0.104,west,9.6,No
2017/12/19,15:10,0.341,0.210,0.349,0.326,-,0.176,0.105,west,9.8,No
2017/12/19,15:20,0.342,0.210,0.349,0.326,0.311,0.176,0.104,west,5.9,No
2017/12/19,15:30,0.342,0.210,0.349,0.326,0.310,0.175,0.104,west-northwest,9.2,No
2017/12/19,15:40,0.340,0.208,0.349,0.325,0.310,0.175,0.104,west,9.8,No
2017/12/19,15:50,0.342,0.208,0.348,0.326,0.310,0.175,0.105,west,8.8,No
2017/12/19,16:00,0.342,0.208,0.350,0.326,0.312,0.175,0.104,west,10.9,No
2017/12/19,16:10,0.342,0.209,0.349,0.325,0.309,0.174,0.105,west-northwest,6.8,No
2017/12/19,16:20,0.341,0.209,0.348,0.324,0.309,0.174,0.103,west-northwest,5.5,No
2017/12/19,16:30,0.342,0.208,0.350,0.325,0.310,0.175,0.104,west-northwest,6.1,No
2017/12/19,16:40,0.340,0.208,0.349,0.325,0.310,0.173,0.104,west-northwest,5.5,No
2017/12/19,16:50,0.341,0.209,0.350,0.326,0.309,0.175,0.103,northwest,4.6,No
2017/12/19,17:00,0.340,0.208,0.349,0.326,0.309,0.174,0.104,northwest,5.5,No
2017/12/19,17:10,0.341,0.209,0.349,0.327,0.307,0.175,0.104,north,5.1,No
2017/12/19,17:20,0.341,0.208,0.348,0.326,0.310,0.174,0.104,north,5.1,No
2017/12/19,17:30,0.343,0.210,0.350,0.326,0.309,0.176,0.104,north-northwest,6.5,Yes
2017/12/19,17:40,0.342,0.209,0.351,0.327,0.310,0.176,0.105,northwest,4.4,No
2017/12/19,17:50,0.342,0.209,0.349,0.327,0.310,0.176,0.105,northwest,5.9,No
2017/12/19,18:00,0.342,0.210,0.351,0.326,0.310,0.176,0.104,north-northwest,6.2,No
2017/12/19,18:10,0.343,0.210,0.350,0.326,0.309,0.175,0.104,north-northwest,5.3,No
2017/12/19,18:20,0.342,0.208,0.349,0.325,0.309,0.176,0.105,north,3.0,No
2017/12/19,18:30,0.341,0.209,0.349,0.326,0.307,0.174,0.104,north,2.5,No
2017/12/19,18:40,0.341,0.209,0.350,0.325,0.309,0.175,0.104,north,5.1,No
2017/12/19,18:50,0.342,0.209,0.349,0.325,0.309,0.175,0.104,north,5.9,No
2017/12/19,19:00,0.342,0.209,0.349,0.326,0.308,0.174,0.104,north-northwest,7.3,No
2017/12/19,19:10,0.341,0.208,0.348,0.326,0.307,0.174,0.105,north,6.2,No
2017/12/19,19:20,0.341,0.209,0.349,0.325,0.309,0.175,0.104,north,4.3,No
2017/12/19,19:30,0.341,0.209,0.349,0.327,0.308,0.174,0.104,north,3.0,No
2017/12/19,19:40,0.341,0.208,0.348,0.325,0.308,0.174,0.104,north,3.7,No
2017/12/19,19:50,0.342,0.209,0.348,0.325,0.308,0.175,0.104,north,4.8,No
2017/12/19,20:00,0.342,0.208,0.348,0.326,0.308,0.174,0.104,north,2.1,No
2017/12/19,20:10,0.341,0.207,0.348,0.327,0.308,0.174,0.104,north,0.9,No
2017/12/19,20:20,0.341,0.209,0.349,0.325,0.307,0.174,0.103,north-northeast,1.0,No
2017/12/19,20:30,0.341,0.208,0.348,0.325,0.307,0.175,0.104,north-northeast,0.7,No
2017/12/19,20:40,0.340,0.207,0.347,0.324,0.307,0.174,0.104,north-northeast,1.6,No
2017/12/19,20:50,0.342,0.207,0.348,0.325,0.308,0.175,0.104,north-northeast,1.9,No
2017/12/19,21:00,0.341,0.208,0.348,0.326,0.309,0.174,0.104,north,1.6,No
2017/12/19,21:10,0.342,0.208,0.349,0.324,0.309,0.175,0.104,north,2.2,No
2017/12/19,21:20,0.343,0.209,0.348,0.326,0.307,0.173,0.104,north,1.4,No
2017/12/19,21:30,0.341,0.207,0.349,0.326,0.309,0.175,0.104,north,1.3,No
2017/12/19,21:40,0.340,0.207,0.347,0.326,0.308,0.175,0.104,north-northwest,1.3,No
2017/12/19,21:50,0.341,0.208,0.350,0.326,0.308,0.174,0.103,north,1.9,No
2017/12/19,22:00,0.341,0.208,0.347,0.325,0.308,0.174,0.104,north,1.3,No
2017/12/19,22:10,0.341,0.207,0.350,0.325,0.307,0.175,0.103,-,CALM,No
2017/12/19,22:20,0.342,0.207,0.347,0.326,0.308,0.175,0.104,-,CALM,No
2017/12/19,22:30,0.340,0.207,0.348,0.324,0.307,0.174,0.105,-,CALM,No
2017/12/19,22:40,0.341,0.208,0.348,0.326,0.307,0.175,0.104,north,1.1,No
2017/12/19,22:50,0.341,0.208,0.349,0.326,0.308,0.173,0.104,north-northwest,0.8,No
2017/12/19,23:00,0.342,0.208,0.348,0.325,0.308,0.175,0.104,-,CALM,No
2017/12/19,23:10,0.341,0.208,0.349,0.325,0.308,0.175,0.104,north-northeast,0.8,No
2017/12/19,23:20,0.341,0.207,0.349,0.325,0.307,0.173,0.104,north,1.3,No
2017/12/19,23:30,0.341,0.208,0.349,0.326,0.307,0.174,0.104,north,2.1,No
2017/12/19,23:40,0.341,0.208,0.349,0.325,0.306,0.173,0.103,north,3.1,No
2017/12/19,23:50,0.342,0.208,0.349,0.324,0.307,0.175,0.104,north,3.1,No
